Weather in Mikhaylovka

Russia / Astrakhan Oblast     47˚38′55″N   46˚52′11″E
temp.,
°C
wind,
m/s
gust,
m/s
humid.,
%
clouds,
%
prec.,
mm/h
press.,
hPa
HPBL,
m
17 january, sun
sun1701:00−7˚w33900 0.0 101752
04:00−8˚wnw239033 0.0 101749
07:00−9˚n118482 0.0 101621
10:00−7˚ne347391 0.0 1016250
13:00−5˚ne4560100 0.0 1015364
16:00−5˚ne5766100 0.0 1012348
19:00−6˚ne5976100 0.0 1012335
22:00−8˚ne61177100 0.0 1012281
18 january, mon
mon1801:00−9˚ne71277100 0.0 1011306
04:00−10˚ne71275100 0.0 1010360
07:00−8˚ne71170100 0.0 1009425
10:00−9˚nne5890100 0.2 1010404
13:00−9˚nne6787100 0.8 1010396
16:00−9˚n5688100 1.9 1010400
19:00−10˚nnw5790100 0.1 1011414
22:00−11˚nw5890100 0.1 1013397
19 january, tue
tue1901:00−12˚nw6991100 0.0 1015308
04:00−13˚nw5992100 0.0 1016270
07:00−14˚nw249453 0.0 1016142
10:00−13˚w238862 0.0 1019166
13:00−9˚wnw3580100 0.0 1018363
16:00−8˚w247894 0.0 1017394
19:00−10˚wsw238730 0.0 101923
22:00−9˚sw238665 0.0 101932
20 january, wed
wed2001:00−8˚s2496100 0.5 1019123
04:00−9˚wsw3596100 0.8 102099
07:00−13˚nw479596 0.0 1021170
10:00−15˚wnw468980 0.0 1023244
13:00−12˚wnw46800 0.0 1023428
16:00−12˚wnw578028 0.0 1023552
19:00−14˚wnw349224 0.0 102561
22:00−15˚wnw489323 0.0 1026237
21 january, thu
thu2101:00−17˚wnw499424 0.0 1027271
04:00−19˚wnw479312 0.0 1028240
07:00−19˚wnw48940 0.0 1029250
10:00−18˚wnw58880 0.0 1031264
13:00−14˚wnw56800 0.0 1032332
16:00−13˚wnw46810 0.0 1032353
19:00−15˚w33920 0.0 103342
22:00−15˚wsw33920 0.0 103443